Home > Weather > Wakefield > Past weeks

Flag for United Kingdom Past Weather in Wakefield, England, United Kingdom — Yesterday and Last 2 Weeks

Now
57 °F

Clear.


Feels Like: 57 °F
Forecast: 51 / 67 °F
Wind: 3 mph from North

Location: Leeds And Bradford

Current Time: Aug 28, 2016 at 11:48:43 PM

Latest Report: Aug 28, 2016 at 11:20 PM


Visibility: 10 mi

Pressure: 30.07 "Hg

Humidity: 88%

Dew Point: 54 °F

Location of WakefieldLocation

Past Weather in Wakefield — Graph

°F

Wakefield Temperature Yesterday

Maximum temperature yesterday: 64 °F (at 11:20 AM)
Minimum temperature yesterday: 50 °F (at 2:20 AM)
Average temperature yesterday: 56 °F

High & Low Weather Summary for the Past Weeks

 TemperatureHumidityPressure
High77 °F (Aug 23, 3:50 PM)100% (Aug 15, 2:20 AM)30.33 "Hg (Aug 15, 2:20 AM)
Low48 °F (Aug 16, 3:50 AM)56% (Aug 16, 2:50 PM)29.45 "Hg (Aug 20, 10:50 AM)
Average60 °F87%30.00 "Hg
* Reported Aug 13 10:20 PM — Aug 28 10:20 PM, Wakefield, Weather by CustomWeather, © 2016

Note: Actual official high and low records may vary slightly from our data, if they occured in-between our weather recording intervals... More about our weather records

Advertising

Wakefield Weather History for the Previous 24 Hours

Scroll right to see more
 ConditionsComfort  
Time TempWeatherWind HumidityBarometerVisibility
10:20 PM
Sun, Aug 28
57 °FClear.3 mph88%30.04 "Hg10 mi
9:50 PM57 °FPassing clouds.5 mph88%30.04 "HgN/A
9:20 PM57 °FPartly cloudy.6 mph88%30.01 "HgN/A
8:50 PM57 °FBroken clouds.3 mph88%30.01 "HgN/A
8:20 PM57 °FBroken clouds.5 mph88%30.01 "HgN/A
7:50 PM59 °FScattered clouds.7 mph88%29.98 "HgN/A
7:20 PM59 °FScattered clouds.6 mph88%29.98 "HgN/A
6:50 PM59 °FScattered clouds.9 mph88%29.98 "HgN/A
6:20 PM59 °FScattered clouds.9 mph88%29.95 "HgN/A
5:50 PM59 °FScattered clouds.9 mph88%29.95 "HgN/A
5:20 PM61 °FScattered clouds.9 mph88%29.95 "HgN/A
4:50 PM63 °FBroken clouds.7 mph83%29.95 "HgN/A
4:20 PM61 °FBroken clouds.7 mph88%29.92 "HgN/A
3:50 PM61 °FBroken clouds.7 mph88%29.92 "HgN/A
3:20 PM61 °FBroken clouds.7 mph88%29.92 "HgN/A
2:50 PM61 °FPartly sunny.7 mph88%29.92 "HgN/A
2:20 PM61 °FPartly sunny.9 mph88%29.89 "HgN/A
1:50 PM63 °FPartly sunny.7 mph83%29.89 "HgN/A
1:20 PM61 °FPartly sunny.8 mph88%29.89 "HgN/A
12:50 PM61 °FPartly sunny.7 mph88%29.86 "HgN/A
12:20 PM63 °FPartly sunny.7 mph83%29.86 "HgN/A
11:50 AM61 °FBroken clouds.7 mph88%29.86 "HgN/A
11:20 AM59 °FBroken clouds.7 mph94%29.86 "HgN/A
10:50 AM59 °FBroken clouds.8 mph94%29.86 "HgN/A
10:20 AM57 °FBroken clouds.6 mph100%29.86 "HgN/A
9:50 AM57 °FBroken clouds.6 mph94%29.86 "HgN/A
9:20 AM55 °FBroken clouds.5 mph100%29.86 "Hg4 mi
8:50 AM55 °FMore clouds than sun.3 mph100%29.83 "Hg3 mi
8:20 AM54 °FFog.5 mph100%29.83 "Hg1 mi
7:50 AM54 °FDrizzle. Fog.7 mph100%29.83 "Hg1 mi
7:20 AM54 °FDrizzle. Fog.6 mph100%29.80 "Hg1 mi
6:50 AM54 °FDrizzle. Fog.6 mph100%29.83 "Hg1 mi
6:20 AM54 °FDrizzle. Fog.8 mph100%29.83 "Hg1 mi
5:50 AM54 °FFog.6 mph100%29.83 "Hg1 mi
5:20 AM55 °FFog.5 mph100%29.83 "Hg1 mi
4:20 AM55 °FFog.7 mph100%29.83 "Hg2 mi
3:50 AM55 °FFog.7 mph100%29.83 "Hg2 mi
3:20 AM55 °FFog.7 mph100%29.86 "Hg2 mi
2:50 AM55 °FLight rain. Fog.7 mph100%29.86 "Hg1 mi
2:20 AM55 °FLight rain. Fog.7 mph100%29.86 "Hg1 mi
1:50 AM55 °FLight rain. Fog.9 mph100%29.89 "Hg1 mi
1:20 AM55 °FLight rain. Fog.9 mph100%29.89 "Hg2 mi
12:50 AM55 °FSprinkles. Partly cloudy.7 mph100%29.89 "Hg4 mi
12:20 AM55 °FLight rain. Fog.9 mph100%29.92 "Hg2 mi
11:50 PM
Sat, Aug 27
55 °FLight rain. Fog.8 mph100%29.92 "Hg1 mi
11:20 PM55 °FLight rain. Fog.8 mph100%29.92 "Hg2 mi
Weather by CustomWeather, © 2016

See weather overviewHow to use our weather pages